Whitefield, NH

9:26 PM EDT on June 28, 2017 (GMT -0400)
Mount Washington Regional

Weather History for KHIE - July, 2013

Change the Weather History Date:

Wednesday, July 24, 2013

  Actual Average Record
Temperature  
Mean Temperature 62 °F -  
Max Temperature 70 °F 75 °F 90 °F (2001)
Min Temperature 55 °F 48 °F 41 °F (2005)
Degree Days  
Heating Degree Days 2    
Growing Degree Days 12 (Base 50)    
Moisture  
Dew Point 56 °F    
Average Humidity 82    
Maximum Humidity 94    
Minimum Humidity 60    
Precipitation  
Precipitation 0.08 in - - ()
Sea Level Pressure  
Sea Level Pressure 29.71 in    
Wind  
Wind Speed 2 mph (West)    
Max Wind Speed 14 mph    
Max Gust Speed 21 mph    
Visibility 7 miles    
Events Fog , Rain    
Averages and records for this station are not official NWS values.
T = Trace of Precipitation, MM = Missing Value Source: NWS Daily Summary

Daily Weather History Graph

Daily Weather History Graph

Search for Another Location

Airport or City:

Trip Planner

Search our weather history database for the weather conditions in past years. The results will help you decide how hot, cold, wet, or windy it might be!

Date:

Astronomy

Jul. 24, 2013 Rise Set
Actual Time 5:24 AM EDT 8:19 PM EDT
Civil Twilight 4:50 AM EDT 8:53 PM EDT
Nautical Twilight 4:07 AM EDT 9:37 PM EDT
Astronomical Twilight 3:15 AM EDT 10:28 PM EDT
Moon 9:14 PM EDT (7/24) 7:48 AM EDT (7/24)
Length of Visible Light 16h 03m
Length of Day
14h 54m
Waning Gibbous, 95% of the Moon is Illuminated
Jul 24
Waning Gibbous
Jul 29
Last Quarter
Aug 6
New
Aug 14
First Quarter
Aug 20
Full

Hourly Weather History & Observations

Time (EDT) Temp. Dew Point Humidity Pressure Visibility Wind Dir Wind Speed Gust Speed Precip Events Conditions
12:01 AM 60.8 °F 59.0 °F 94% 29.61 in 1.2 mi Calm Calm - N/A   Mostly Cloudy
12:05 AM 60.8 °F 59.0 °F 94% 29.61 in 3.0 mi Calm Calm - N/A   Scattered Clouds
12:52 AM 60.1 °F 57.0 °F 90% 29.61 in 9.0 mi Calm Calm - N/A   Mostly Cloudy
1:00 AM 60.8 °F 59.0 °F 94% 29.61 in 1.8 mi Calm Calm - N/A   Mostly Cloudy
1:11 AM 60.8 °F 57.2 °F 88% 29.61 in 3.0 mi Calm Calm - N/A   Overcast
1:22 AM 60.8 °F 57.2 °F 88% 29.61 in 2.0 mi Calm Calm - N/A   Overcast
1:29 AM 60.8 °F 57.2 °F 88% 29.61 in 1.2 mi Calm Calm - N/A   Overcast
1:39 AM 60.8 °F 57.2 °F 88% 29.60 in 0.8 mi Calm Calm - N/A   Overcast
1:49 AM 60.8 °F 57.2 °F 88% 29.60 in 1.2 mi Calm Calm - N/A   Overcast
1:52 AM 60.1 °F 57.9 °F 93% 29.59 in 1.2 mi Calm Calm - N/A   Overcast
2:05 AM 60.8 °F 57.2 °F 88% 29.60 in 2.0 mi Calm Calm - N/A   Overcast
2:10 AM 60.8 °F 57.2 °F 88% 29.60 in 1.0 mi Calm Calm - N/A   Overcast
2:24 AM 60.8 °F 57.2 °F 88% 29.60 in 0.2 mi Calm Calm - N/A Fog Fog
2:52 AM 59.0 °F 57.0 °F 93% 29.60 in 1.0 mi Calm Calm - N/A   Overcast
2:56 AM 59.0 °F 57.2 °F 94% 29.60 in 2.0 mi Calm Calm - N/A   Mostly Cloudy
3:00 AM 59.0 °F 57.2 °F 94% 29.60 in 3.0 mi Calm Calm - N/A   Scattered Clouds
3:21 AM 59.0 °F 57.2 °F 94% 29.61 in 1.8 mi Calm Calm - 0.01 in   Scattered Clouds
3:29 AM 59.0 °F 57.2 °F 94% 29.61 in 3.0 mi Calm Calm - 0.01 in   Scattered Clouds
3:52 AM 59.0 °F 57.0 °F 93% 29.61 in 8.0 mi Calm Calm - 0.01 in   Partly Cloudy
4:52 AM 59.0 °F 57.0 °F 93% 29.61 in 10.0 mi Calm Calm - 0.00 in   Mostly Cloudy
5:52 AM 61.0 °F 57.9 °F 90% 29.62 in 10.0 mi WNW 3.5 mph - N/A   Overcast
6:14 AM 60.8 °F 59.0 °F 94% 29.63 in 1.8 mi East 4.6 mph - 0.06 in Rain Rain
6:21 AM 60.8 °F 59.0 °F 94% 29.63 in 3.0 mi SE 3.5 mph - 0.06 in Rain Light Rain
6:52 AM 63.0 °F 60.1 °F 90% 29.62 in 9.0 mi NNW 3.5 mph - 0.06 in   Mostly Cloudy
7:52 AM 68.0 °F 64.0 °F 87% 29.63 in 10.0 mi Calm Calm - N/A   Clear
8:31 AM 69.8 °F 64.4 °F 83% 29.66 in 10.0 mi Calm Calm - N/A   Mostly Cloudy
8:49 AM 69.8 °F 64.4 °F 83% 29.67 in 10.0 mi Variable 3.5 mph - 0.01 in   Overcast
8:52 AM 70.0 °F 64.9 °F 84% 29.66 in 10.0 mi SSW 3.5 mph - 0.01 in   Overcast
9:52 AM 70.0 °F 64.0 °F 81% 29.68 in 10.0 mi Calm Calm - N/A   Overcast
10:00 AM 69.8 °F 64.4 °F 83% 29.69 in 10.0 mi SW 3.5 mph - N/A   Overcast
10:52 AM 64.9 °F 57.9 °F 78% 29.73 in 10.0 mi West 6.9 mph - 0.00 in Rain Light Rain
11:15 AM 64.4 °F 57.2 °F 77% 29.75 in 10.0 mi SSW 3.5 mph - 0.00 in   Overcast
11:52 AM 64.9 °F 57.0 °F 75% 29.77 in 10.0 mi Calm Calm - 0.00 in   Overcast
12:20 PM 64.4 °F 57.2 °F 77% 29.78 in 10.0 mi SW 6.9 mph - N/A   Overcast
12:36 PM 64.4 °F 55.4 °F 73% 29.79 in 10.0 mi SW 5.8 mph - N/A   Overcast
12:52 PM 66.0 °F 57.0 °F 73% 29.80 in 10.0 mi WSW 4.6 mph - N/A   Overcast
1:45 PM 66.2 °F 55.4 °F 68% 29.80 in 10.0 mi West 5.8 mph - N/A   Overcast
1:52 PM 66.9 °F 55.9 °F 68% 29.81 in 10.0 mi West 6.9 mph - N/A   Overcast
2:03 PM 68.0 °F 55.4 °F 64% 29.80 in 10.0 mi WNW 6.9 mph - N/A   Overcast
2:52 PM 66.9 °F 54.0 °F 63% 29.81 in 10.0 mi NW 8.1 mph - N/A   Overcast
3:52 PM 66.0 °F 52.0 °F 60% 29.83 in 10.0 mi West 10.4 mph - N/A   Overcast
4:52 PM 64.9 °F 51.1 °F 61% 29.86 in 10.0 mi NW 11.5 mph 17.3 mph N/A   Overcast
5:52 PM 62.1 °F 48.0 °F 60% 29.89 in 10.0 mi NW 13.8 mph 20.7 mph N/A   Scattered Clouds
6:52 PM 59.0 °F 46.9 °F 64% 29.94 in 10.0 mi NNW 9.2 mph - N/A   Overcast
7:52 PM 57.0 °F 46.9 °F 69% 29.96 in 10.0 mi NW 6.9 mph - N/A   Overcast
8:52 PM 55.9 °F 46.9 °F 72% 29.99 in 10.0 mi WNW 4.6 mph - N/A   Overcast
9:52 PM 55.0 °F 46.0 °F 72% 30.03 in 10.0 mi WNW 4.6 mph - N/A   Overcast
10:52 PM 55.0 °F 46.9 °F 74% 30.04 in 10.0 mi Calm Calm - N/A   Overcast
11:52 PM 55.0 °F 46.0 °F 72% 30.06 in 10.0 mi Calm Calm - N/A   Overcast